Time,TemperatureF,DewpointF,PressureIn,WindDirection,WindDirectionDegrees,WindSpeedMPH,WindSpeedGustMPH,Humidity,HourlyPrecipIn,Conditions,Clouds,dailyrainin,SoftwareType,DateUTC
2013-05-25 00:02:00,77.0,64.0,29.96,East,93,8.0,-999.0,65,-99.99,,,-99.99,,2013-05-25 10:02:00,
2013-05-25 00:12:00,77.0,64.0,29.96,East,93,8.0,-999.0,65,-99.99,,,-99.99,,2013-05-25 10:12:00,
2013-05-25 00:22:00,77.0,64.0,29.96,South,190,6.0,-999.0,65,-99.99,,,-99.99,,2013-05-25 10:22:00,
2013-05-25 00:32:00,77.0,65.0,29.96,SE,129,5.0,-999.0,66,-99.99,,,-99.99,,2013-05-25 10:32:00,
2013-05-25 00:42:00,77.0,65.0,29.96,SE,129,5.0,-999.0,66,-99.99,,,-99.99,,2013-05-25 10:42:00,
2013-05-25 00:52:00,77.0,64.0,29.95,ESE,118,3.0,-999.0,65,-99.99,,,-99.99,,2013-05-25 10:52:00,
2013-05-25 01:02:00,77.0,65.0,29.95,NW,319,4.0,-999.0,66,-99.99,,,-99.99,,2013-05-25 11:02:00,
2013-05-25 01:11:00,77.0,65.0,29.95,NW,319,4.0,-999.0,66,-99.99,,,-99.99,,2013-05-25 11:11:00,
2013-05-25 01:21:00,76.0,64.0,29.94,NW,319,1.0,-999.0,66,-99.99,,,-99.99,,2013-05-25 11:21:00,
2013-05-25 01:32:00,76.0,63.0,29.95,East,90,3.0,-999.0,65,-99.99,,,-99.99,,2013-05-25 11:32:00,
2013-05-25 01:41:00,76.0,63.0,29.95,East,90,3.0,-999.0,65,-99.99,,,-99.99,,2013-05-25 11:41:00,
2013-05-25 01:52:00,76.0,64.0,29.94,ESE,116,2.0,-999.0,66,-99.99,,,-99.99,,2013-05-25 11:52:00,
2013-05-25 02:01:00,76.0,63.0,29.94,ESE,115,1.0,-999.0,65,-99.99,,,-99.99,,2013-05-25 12:01:00,
2013-05-25 02:12:00,76.0,63.0,29.94,ESE,115,1.0,-999.0,65,-99.99,,,-99.99,,2013-05-25 12:12:00,
2013-05-25 02:21:00,76.0,64.0,29.94,ESE,113,2.0,-999.0,66,-99.99,,,-99.99,,2013-05-25 12:21:00,
2013-05-25 02:32:00,76.0,64.0,29.94,SE,132,3.0,-999.0,66,-99.99,,,-99.99,,2013-05-25 12:32:00,
2013-05-25 02:42:00,76.0,64.0,29.94,SE,132,3.0,-999.0,66,-99.99,,,-99.99,,2013-05-25 12:42:00,
2013-05-25 02:52:00,76.0,64.0,29.94,SE,132,1.0,-999.0,66,-99.99,,,-99.99,,2013-05-25 12:52:00,
2013-05-25 03:02:00,76.0,64.0,29.94,ESE,123,1.0,-999.0,66,-99.99,,,-99.99,,2013-05-25 13:02:00,
2013-05-25 03:11:00,76.0,64.0,29.94,ESE,123,1.0,-999.0,66,-99.99,,,-99.99,,2013-05-25 13:11:00,
2013-05-25 03:21:00,76.0,64.0,29.94,ESE,123,1.0,-999.0,67,-99.99,,,-99.99,,2013-05-25 13:21:00,
2013-05-25 03:32:00,76.0,64.0,29.94,East,81,3.0,-999.0,66,-99.99,,,-99.99,,2013-05-25 13:32:00,
2013-05-25 03:42:00,76.0,64.0,29.94,East,81,3.0,-999.0,66,-99.99,,,-99.99,,2013-05-25 13:42:00,
2013-05-25 03:52:00,75.0,63.0,29.94,East,81,2.0,-999.0,67,-99.99,,,-99.99,,2013-05-25 13:52:00,
2013-05-25 04:02:00,75.0,63.0,29.94,ESE,102,1.0,-999.0,67,-99.99,,,-99.99,,2013-05-25 14:02:00,
2013-05-25 04:11:00,75.0,63.0,29.94,ESE,102,1.0,-999.0,67,-99.99,,,-99.99,,2013-05-25 14:11:00,
2013-05-25 04:22:00,75.0,63.0,29.94,ESE,103,1.0,-999.0,67,-99.99,,,-99.99,,2013-05-25 14:22:00,
2013-05-25 04:32:00,75.0,63.0,29.94,ENE,76,1.0,-999.0,66,-99.99,,,-99.99,,2013-05-25 14:32:00,
2013-05-25 04:41:00,75.0,63.0,29.94,ENE,76,1.0,-999.0,66,-99.99,,,-99.99,,2013-05-25 14:41:00,
2013-05-25 04:52:00,75.0,63.0,29.94,ENE,76,1.0,-999.0,66,-99.99,,,-99.99,,2013-05-25 14:52:00,
2013-05-25 05:01:00,75.0,64.0,29.95,ENE,76,0.0,-999.0,68,-99.99,,,-99.99,,2013-05-25 15:01:00,
2013-05-25 05:11:00,75.0,64.0,29.95,ENE,76,0.0,-999.0,68,-99.99,,,-99.99,,2013-05-25 15:11:00,
2013-05-25 05:22:00,75.0,64.0,29.95,ENE,76,1.0,-999.0,68,-99.99,,,-99.99,,2013-05-25 15:22:00,
2013-05-25 05:33:00,74.0,63.0,29.95,ENE,76,1.0,-999.0,68,-99.99,,,-99.99,,2013-05-25 15:33:00,
2013-05-25 05:43:00,74.0,63.0,29.95,ENE,76,1.0,-999.0,68,-99.99,,,-99.99,,2013-05-25 15:43:00,
2013-05-25 05:53:00,74.0,63.0,29.95,ENE,76,0.0,-999.0,68,-99.99,,,-99.99,,2013-05-25 15:53:00,
2013-05-25 06:03:00,74.0,63.0,29.95,ENE,76,3.0,-999.0,69,-99.99,,,-99.99,,2013-05-25 16:03:00,
2013-05-25 06:12:00,74.0,63.0,29.95,ENE,76,3.0,-999.0,69,-99.99,,,-99.99,,2013-05-25 16:12:00,
2013-05-25 06:22:00,75.0,64.0,29.95,NNW,347,6.0,-999.0,69,-99.99,,,-99.99,,2013-05-25 16:22:00,
2013-05-25 06:32:00,75.0,64.0,29.96,NNW,329,7.0,-999.0,69,-99.99,,,-99.99,,2013-05-25 16:32:00,
2013-05-25 06:42:00,75.0,64.0,29.96,NNW,329,7.0,-999.0,69,-99.99,,,-99.99,,2013-05-25 16:42:00,
2013-05-25 06:52:00,75.0,64.0,29.96,North,5,7.0,-999.0,68,-99.99,,,-99.99,,2013-05-25 16:52:00,
2013-05-25 07:02:00,76.0,65.0,29.96,North,351,5.0,-999.0,68,-99.99,,,-99.99,,2013-05-25 17:02:00,
2013-05-25 07:11:00,76.0,65.0,29.96,North,351,5.0,-999.0,68,-99.99,,,-99.99,,2013-05-25 17:11:00,
2013-05-25 07:22:00,76.0,65.0,29.96,NNW,329,4.0,-999.0,68,-99.99,,,-99.99,,2013-05-25 17:22:00,
2013-05-25 07:32:00,77.0,66.0,29.97,North,355,4.0,-999.0,69,-99.99,,,-99.99,,2013-05-25 17:32:00,
2013-05-25 07:41:00,77.0,66.0,29.97,North,355,4.0,-999.0,69,-99.99,,,-99.99,,2013-05-25 17:41:00,
2013-05-25 07:52:00,78.0,66.0,29.97,NNE,19,2.0,-999.0,67,-99.99,,,-99.99,,2013-05-25 17:52:00,
2013-05-25 08:01:00,78.0,66.0,29.97,North,5,3.0,-999.0,66,-99.99,,,-99.99,,2013-05-25 18:01:00,
2013-05-25 08:11:00,78.0,66.0,29.97,North,5,3.0,-999.0,66,-99.99,,,-99.99,,2013-05-25 18:11:00,
2013-05-25 08:21:00,79.0,66.0,29.97,NNW,329,3.0,-999.0,64,-99.99,,,-99.99,,2013-05-25 18:21:00,
2013-05-25 08:32:00,78.0,66.0,29.97,NNW,331,8.0,-999.0,66,-99.99,,,-99.99,,2013-05-25 18:32:00,
2013-05-25 08:41:00,78.0,66.0,29.97,NNW,331,8.0,-999.0,66,-99.99,,,-99.99,,2013-05-25 18:41:00,
2013-05-25 08:52:00,79.0,66.0,29.97,North,355,7.0,-999.0,65,-99.99,,,-99.99,,2013-05-25 18:52:00,
2013-05-25 09:01:00,80.0,67.0,29.97,NW,325,3.0,-999.0,64,-99.99,,,-99.99,,2013-05-25 19:01:00,
2013-05-25 09:11:00,80.0,67.0,29.97,NW,325,3.0,-999.0,64,-99.99,,,-99.99,,2013-05-25 19:11:00,
2013-05-25 09:21:00,80.0,66.0,29.97,NW,313,2.0,-999.0,62,-99.99,,,-99.99,,2013-05-25 19:21:00,
2013-05-25 09:31:00,79.0,67.0,29.97,SW,225,6.0,-999.0,66,-99.99,,,-99.99,,2013-05-25 19:31:00,
2013-05-25 09:41:00,79.0,67.0,29.97,SW,225,6.0,-999.0,66,-99.99,,,-99.99,,2013-05-25 19:41:00,
2013-05-25 09:52:00,80.0,67.0,29.97,WSW,241,7.0,-999.0,65,-99.99,,,-99.99,,2013-05-25 19:52:00,
2013-05-25 10:02:00,82.0,67.0,29.97,ESE,107,6.0,-999.0,61,-99.99,,,-99.99,,2013-05-25 20:02:00,
2013-05-25 10:11:00,82.0,67.0,29.97,ESE,107,6.0,-999.0,61,-99.99,,,-99.99,,2013-05-25 20:11:00,
2013-05-25 10:21:00,83.0,67.0,29.97,East,94,6.0,-999.0,58,-99.99,,,-99.99,,2013-05-25 20:21:00,
2013-05-25 10:32:00,83.0,66.0,29.96,ESE,119,6.0,-999.0,56,-99.99,,,-99.99,,2013-05-25 20:32:00,
2013-05-25 10:41:00,83.0,66.0,29.96,ESE,119,6.0,-999.0,56,-99.99,,,-99.99,,2013-05-25 20:41:00,
2013-05-25 10:51:00,83.0,66.0,29.96,East,95,7.0,-999.0,56,-99.99,,,-99.99,,2013-05-25 20:51:00,
2013-05-25 11:02:00,83.0,66.0,29.97,East,80,9.0,-999.0,57,-99.99,,,-99.99,,2013-05-25 21:02:00,
2013-05-25 11:11:00,83.0,66.0,29.97,East,80,9.0,-999.0,57,-99.99,,,-99.99,,2013-05-25 21:11:00,
2013-05-25 11:21:00,82.0,67.0,29.97,East,82,6.0,-999.0,61,-99.99,,,-99.99,,2013-05-25 21:21:00,
2013-05-25 11:33:00,82.0,67.0,29.97,WSW,244,3.0,-999.0,60,-99.99,,,-99.99,,2013-05-25 21:33:00,
2013-05-25 11:42:00,82.0,67.0,29.97,WSW,244,3.0,-999.0,60,-99.99,,,-99.99,,2013-05-25 21:42:00,
2013-05-25 11:53:00,84.0,67.0,29.97,WNW,302,4.0,-999.0,57,-99.99,,,-99.99,,2013-05-25 21:53:00,
2013-05-25 12:02:00,85.0,66.0,29.96,NNE,26,7.0,-999.0,54,-99.99,,,-99.99,,2013-05-25 22:02:00,
2013-05-25 12:12:00,85.0,66.0,29.96,NNE,26,7.0,-999.0,54,-99.99,,,-99.99,,2013-05-25 22:12:00,
2013-05-25 12:22:00,84.0,66.0,29.96,North,360,7.0,-999.0,54,-99.99,,,-99.99,,2013-05-25 22:22:00,
2013-05-25 12:32:00,84.0,67.0,29.95,NNW,346,10.0,-999.0,56,-99.99,,,-99.99,,2013-05-25 22:32:00,
2013-05-25 12:42:00,84.0,67.0,29.95,NNW,346,10.0,-999.0,56,-99.99,,,-99.99,,2013-05-25 22:42:00,
2013-05-25 12:52:00,84.0,68.0,29.96,South,174,6.0,-999.0,58,-99.99,,,-99.99,,2013-05-25 22:52:00,
2013-05-25 13:02:00,83.0,66.0,29.96,ESE,116,14.0,-999.0,57,-99.99,,,-99.99,,2013-05-25 23:02:00,
2013-05-25 13:11:00,83.0,66.0,29.96,ESE,116,14.0,-999.0,57,-99.99,,,-99.99,,2013-05-25 23:11:00,
2013-05-25 13:21:00,84.0,67.0,29.95,NW,304,6.0,-999.0,56,-99.99,,,-99.99,,2013-05-25 23:21:00,
2013-05-25 13:32:00,85.0,68.0,29.95,ESE,104,9.0,-999.0,56,-99.99,,,-99.99,,2013-05-25 23:32:00,
2013-05-25 13:42:00,85.0,68.0,29.95,ESE,104,9.0,-999.0,56,-99.99,,,-99.99,,2013-05-25 23:42:00,
2013-05-25 13:52:00,85.0,68.0,29.94,NE,34,6.0,-999.0,56,-99.99,,,-99.99,,2013-05-25 23:52:00,
2013-05-25 14:01:00,84.0,67.0,29.94,East,91,12.0,-999.0,57,-99.99,,,-99.99,,2013-05-26 00:01:00,
2013-05-25 14:11:00,84.0,67.0,29.94,East,91,12.0,-999.0,57,-99.99,,,-99.99,,2013-05-26 00:11:00,
2013-05-25 14:21:00,84.0,67.0,29.94,ENE,66,10.0,-999.0,57,-99.99,,,-99.99,,2013-05-26 00:21:00,
2013-05-25 14:31:00,86.0,68.0,29.93,North,350,7.0,-999.0,55,-99.99,,,-99.99,,2013-05-26 00:31:00,
2013-05-25 14:42:00,86.0,68.0,29.93,North,350,7.0,-999.0,55,-99.99,,,-99.99,,2013-05-26 00:42:00,
2013-05-25 14:52:00,85.0,68.0,29.93,NNE,19,10.0,-999.0,56,-99.99,,,-99.99,,2013-05-26 00:52:00,
2013-05-25 15:01:00,84.0,67.0,29.93,ENE,78,9.0,-999.0,56,-99.99,,,-99.99,,2013-05-26 01:01:00,
2013-05-25 15:11:00,84.0,67.0,29.93,ENE,78,9.0,-999.0,56,-99.99,,,-99.99,,2013-05-26 01:11:00,
2013-05-25 15:21:00,84.0,67.0,29.93,North,360,11.0,-999.0,57,-99.99,,,-99.99,,2013-05-26 01:21:00,
2013-05-25 15:32:00,84.0,66.0,29.93,East,89,10.0,-999.0,55,-99.99,,,-99.99,,2013-05-26 01:32:00,
2013-05-25 15:41:00,84.0,66.0,29.93,East,89,10.0,-999.0,55,-99.99,,,-99.99,,2013-05-26 01:41:00,
2013-05-25 15:52:00,83.0,66.0,29.92,NE,51,9.0,-999.0,56,-99.99,,,-99.99,,2013-05-26 01:52:00,
2013-05-25 16:02:00,83.0,66.0,29.92,North,5,11.0,-999.0,57,-99.99,,,-99.99,,2013-05-26 02:02:00,
2013-05-25 16:11:00,83.0,66.0,29.92,North,5,11.0,-999.0,57,-99.99,,,-99.99,,2013-05-26 02:11:00,
2013-05-25 16:21:00,83.0,66.0,29.92,North,10,9.0,-999.0,57,-99.99,,,-99.99,,2013-05-26 02:21:00,
2013-05-25 16:32:00,82.0,66.0,29.92,South,184,9.0,-999.0,58,-99.99,,,-99.99,,2013-05-26 02:32:00,
2013-05-25 16:41:00,82.0,66.0,29.92,South,184,9.0,-999.0,58,-99.99,,,-99.99,,2013-05-26 02:41:00,
2013-05-25 16:52:00,82.0,67.0,29.93,North,5,9.0,-999.0,60,-99.99,,,-99.99,,2013-05-26 02:52:00,
2013-05-25 17:01:00,81.0,66.0,29.93,ENE,59,10.0,-999.0,61,-99.99,,,-99.99,,2013-05-26 03:01:00,
2013-05-25 17:11:00,81.0,66.0,29.93,ENE,59,10.0,-999.0,61,-99.99,,,-99.99,,2013-05-26 03:11:00,
2013-05-25 17:21:00,81.0,67.0,29.92,North,11,8.0,-999.0,63,-99.99,,,-99.99,,2013-05-26 03:21:00,
2013-05-25 17:33:00,80.0,66.0,29.92,North,10,8.0,-999.0,63,-99.99,,,-99.99,,2013-05-26 03:33:00,
2013-05-25 17:42:00,80.0,66.0,29.92,North,10,8.0,-999.0,63,-99.99,,,-99.99,,2013-05-26 03:42:00,
2013-05-25 17:53:00,81.0,68.0,29.92,North,355,7.0,-999.0,64,-99.99,,,-99.99,,2013-05-26 03:53:00,
2013-05-25 18:02:00,81.0,67.0,29.93,NE,53,8.0,-999.0,62,-99.99,,,-99.99,,2013-05-26 04:02:00,
2013-05-25 18:12:00,81.0,67.0,29.93,NE,53,8.0,-999.0,62,-99.99,,,-99.99,,2013-05-26 04:12:00,
2013-05-25 18:23:00,81.0,67.0,29.93,NNE,22,8.0,-999.0,62,-99.99,,,-99.99,,2013-05-26 04:23:00,
2013-05-25 18:33:00,81.0,67.0,29.93,NE,53,5.0,-999.0,62,-99.99,,,-99.99,,2013-05-26 04:33:00,
2013-05-25 18:42:00,81.0,67.0,29.93,NE,53,5.0,-999.0,62,-99.99,,,-99.99,,2013-05-26 04:42:00,
2013-05-25 18:52:00,80.0,65.0,29.93,ENE,67,8.0,-999.0,61,-99.99,,,-99.99,,2013-05-26 04:52:00,
2013-05-25 19:02:00,80.0,67.0,29.93,North,5,4.0,-999.0,64,-99.99,,,-99.99,,2013-05-26 05:02:00,
2013-05-25 19:12:00,80.0,67.0,29.93,North,5,4.0,-999.0,64,-99.99,,,-99.99,,2013-05-26 05:12:00,
2013-05-25 19:21:00,79.0,67.0,29.94,NNE,24,8.0,-999.0,66,-99.99,,,-99.99,,2013-05-26 05:21:00,
2013-05-25 19:32:00,79.0,67.0,29.95,ENE,75,9.0,-999.0,66,-99.99,,,-99.99,,2013-05-26 05:32:00,
2013-05-25 19:42:00,79.0,67.0,29.95,ENE,75,9.0,-999.0,66,-99.99,,,-99.99,,2013-05-26 05:42:00,
2013-05-25 19:52:00,78.0,65.0,29.95,East,83,8.0,-999.0,65,-99.99,,,-99.99,,2013-05-26 05:52:00,
2013-05-25 20:01:00,78.0,65.0,29.96,NE,47,10.0,-999.0,65,-99.99,,,-99.99,,2013-05-26 06:01:00,
2013-05-25 20:11:00,78.0,65.0,29.96,NE,47,10.0,-999.0,65,-99.99,,,-99.99,,2013-05-26 06:11:00,
2013-05-25 20:21:00,78.0,65.0,29.96,ENE,57,10.0,-999.0,65,-99.99,,,-99.99,,2013-05-26 06:21:00,
2013-05-25 20:32:00,78.0,65.0,29.96,NNE,25,11.0,-999.0,65,-99.99,,,-99.99,,2013-05-26 06:32:00,
2013-05-25 20:41:00,78.0,65.0,29.96,NNE,25,11.0,-999.0,65,-99.99,,,-99.99,,2013-05-26 06:41:00,
2013-05-25 20:51:00,78.0,65.0,29.96,NNE,30,13.0,-999.0,64,-99.99,,,-99.99,,2013-05-26 06:51:00,
2013-05-25 21:01:00,78.0,63.0,29.96,WNW,297,10.0,-999.0,61,-99.99,,,-99.99,,2013-05-26 07:01:00,
2013-05-25 21:11:00,78.0,63.0,29.96,WNW,297,10.0,-999.0,61,-99.99,,,-99.99,,2013-05-26 07:11:00,
2013-05-25 21:21:00,78.0,64.0,29.97,North,10,10.0,-999.0,63,-99.99,,,-99.99,,2013-05-26 07:21:00,
2013-05-25 21:31:00,78.0,64.0,29.97,NE,46,12.0,-999.0,63,-99.99,,,-99.99,,2013-05-26 07:31:00,
2013-05-25 21:42:00,78.0,64.0,29.97,NE,46,12.0,-999.0,63,-99.99,,,-99.99,,2013-05-26 07:42:00,
2013-05-25 21:52:00,78.0,65.0,29.98,NNW,348,8.0,-999.0,64,-99.99,,,-99.99,,2013-05-26 07:52:00,
2013-05-25 22:01:00,78.0,64.0,29.98,North,360,10.0,-999.0,63,-99.99,,,-99.99,,2013-05-26 08:01:00,
2013-05-25 22:11:00,78.0,64.0,29.98,North,360,10.0,-999.0,63,-99.99,,,-99.99,,2013-05-26 08:11:00,
2013-05-25 22:21:00,78.0,64.0,29.98,WSW,258,6.0,-999.0,63,-99.99,,,-99.99,,2013-05-26 08:21:00,
2013-05-25 22:32:00,78.0,65.0,29.98,WNW,287,7.0,-999.0,64,-99.99,,,-99.99,,2013-05-26 08:32:00,
2013-05-25 22:41:00,78.0,65.0,29.98,WNW,287,7.0,-999.0,64,-99.99,,,-99.99,,2013-05-26 08:41:00,
2013-05-25 22:52:00,77.0,65.0,29.99,SW,222,3.0,-999.0,66,-99.99,,,-99.99,,2013-05-26 08:52:00,
2013-05-25 23:01:00,78.0,65.0,29.99,WNW,298,4.0,-999.0,65,-99.99,,,-99.99,,2013-05-26 09:01:00,
2013-05-25 23:11:00,77.0,65.0,29.99,North,355,2.0,-999.0,66,-99.99,,,-99.99,,2013-05-26 09:11:00,
2013-05-25 23:21:00,77.0,65.0,29.99,North,355,2.0,-999.0,66,-99.99,,,-99.99,,2013-05-26 09:21:00,
2013-05-25 23:33:00,77.0,65.0,29.99,North,360,6.0,-999.0,67,-99.99,,,-99.99,,2013-05-26 09:33:00,
2013-05-25 23:42:00,77.0,65.0,29.99,North,360,6.0,-999.0,67,-99.99,,,-99.99,,2013-05-26 09:42:00,
2013-05-25 23:52:00,77.0,65.0,29.98,West,268,5.0,-999.0,66,-99.99,,,-99.99,,2013-05-26 09:52:00,